[[{"header":{"parameterUnit":"m.s-1","parameterCategory":1,"la1":30.2991,"la2":30.254,"lo1":-89.0895,"lo2":-89.0444,"dy":0.0017,"dx":0.0017,"nx":28,"ny":28,"refTime":"2025-07-12T21:00:00:Z","depth":0,"parameterNumber":2,"parameterNumberName":"U-component_of_WINDS"},"data":[0,0,0,0,0,0,0,0,0,0,0,0,0,0,0,0,0,0,0,0,0,0,0,0,0,0,0,0,0,0,0,0,0,0,0,0,0,0,0,0,0,0,0,0,0,0,0,0,0,0,0,0,0,0,0,0,0,0,3.0679,3.0679,0,3.0703,3.0703,3.0703,3.0622,3.062,3.0617,3.0615,3.0642,3.0645,3.0648,0,0,0,0,0,0,0,0,0,0,0,0,0,3.0564,3.0567,3.0679,3.0679,3.068,3.0703,3.0703,3.0703,3.0623,3.062,3.0617,3.0614,3.0641,3.0644,3.0648,0,0,0,0,0,0,0,0,0,0,0,0,0,3.0604,3.0568,3.0679,3.0642,3.0639,3.0703,3.0703,3.0703,3.0623,3.062,3.0616,3.0613,3.064,3.0644,3.0648,3.0749,0,0,3.0662,3.0664,0,0,0,0,0,0,0,0,3.0602,3.0608,3.0647,3.0645,3.0641,3.0656,3.0672,3.0719,3.0624,3.0629,3.0615,3.0611,3.0649,3.0653,3.0665,3.075,3.0751,3.0662,3.0665,3.0667,3.0668,0,0,0,0,0,0,0,3.0599,3.0607,3.0688,3.0648,3.0644,3.0624,3.0626,3.0681,3.066,3.0629,3.0623,3.0627,3.0647,3.0661,3.0665,3.0752,3.0662,3.0666,3.0669,3.0671,3.0916,3.092,0,0,0,0,0,0,3.0601,3.0605,3.0688,3.0689,3.0612,3.0629,3.0631,3.0655,3.0659,3.0656,3.063,3.0623,3.0655,3.066,3.0666,3.0781,3.0667,3.0671,3.0674,3.0912,3.0917,3.0921,0,0,0,0,0,0,3.0599,3.0609,3.0687,3.0645,3.0654,3.0635,3.0663,3.0657,3.0671,3.066,3.0656,3.0648,3.0653,3.066,3.0728,3.0781,3.0673,3.0677,3.0908,3.0914,3.0919,3.1013,0,0,0,0,0,0,3.0596,3.0609,3.0647,3.0647,3.0656,3.0748,3.0666,3.066,3.0679,3.067,3.0676,3.0673,3.065,3.0722,3.0732,3.0785,3.0681,3.0903,3.091,3.0917,3.1005,3.1021,3.1035,0,0,0,0,0,3.0592,3.0674,3.0649,3.066,3.0704,3.0752,3.0757,3.0729,3.0684,3.0721,3.0713,3.0673,3.0774,3.0729,3.0741,3.0795,3.0899,3.0908,3.0917,3.0999,3.1018,3.1035,0,0,0,0,0,0,3.0683,3.0674,3.0646,3.0731,3.0742,3.0738,3.0785,3.0751,3.0777,3.0767,3.0732,3.0734,3.0807,3.0809,3.0759,3.0891,3.0829,3.084,3.0887,3.0906,3.0921,3.0918,3.0684,0,0,0,0,0,3.0713,3.0752,3.0742,3.0817,3.0824,3.0804,3.0824,3.0801,3.0812,3.0816,3.0814,3.0826,3.086,3.0884,3.0915,3.1006,3.1004,3.1049,3.1064,3.1076,3.1086,3.113,3.1149,3.0949,3.0949,3.0949,0,0,3.0775,3.0774,3.0802,3.0836,3.0842,3.0882,3.0809,3.0856,3.0885,3.0824,3.0886,3.0885,3.0897,3.0976,3.101,3.0979,3.1141,3.1087,3.1097,3.11,3.1141,3.116,3.1177,3.0955,3.0954,3.0953,0,0,3.0907,3.0913,3.0974,3.0981,3.0991,3.0976,3.0991,3.0991,3.0987,3.1049,3.1003,3.1038,3.1098,3.1107,3.112,3.1253,3.1216,3.1265,3.1342,3.1386,3.1402,3.1415,3.146,3.1476,3.1275,3.1275,3.1275,0,3.0983,3.1043,3.101,3.1059,3.1074,3.1019,3.108,3.1089,3.1109,3.112,3.1085,3.1156,3.1161,3.1239,3.1271,3.1285,3.1299,3.1263,3.1402,3.1416,3.1428,3.1469,3.1487,3.128,3.128,3.1279,3.1279,0,3.1133,3.1175,3.1224,3.1242,3.1263,3.1318,3.1293,3.1318,3.1293,3.1282,3.1344,3.1347,3.1376,3.1393,3.1371,3.1468,3.1447,3.1408,3.1344,3.1453,3.1491,3.1507,3.1288,3.1286,3.1285,3.1283,0,0,3.1325,3.1322,3.134,3.1345,3.1351,3.1383,3.1435,3.1461,3.1482,3.1498,3.1538,3.159,3.1552,3.1566,3.1543,3.1582,3.1683,3.1537,3.1537,3.1561,3.1787,3.1814,3.1833,3.1659,3.1663,3.1665,3.1785,0,3.1452,3.1539,3.151,3.1598,3.1634,3.1581,3.1626,3.1634,3.1625,3.1654,3.1644,3.1679,3.1629,3.1636,3.1673,3.1663,3.1728,3.1655,3.1695,3.1697,3.1691,3.1854,3.1884,3.1997,3.18,3.1802,3.1804,0,3.1613,3.1631,3.1722,3.1718,3.1732,3.1773,3.1793,3.1823,3.183,3.182,3.1835,3.1803,3.1853,3.1791,3.1857,3.1808,3.1823,3.1821,3.1825,3.1825,3.1755,3.1856,3.2033,3.2048,3.1828,3.1827,3.1825,0,3.1738,3.1787,3.1846,3.1853,3.1851,3.188,3.1881,3.1884,3.1901,3.1919,3.1929,3.1954,3.1967,3.1987,3.1962,3.192,3.2031,3.1968,3.2023,3.2023,3.2047,3.2045,3.2225,3.2062,3.2062,3.2062,3.2061,0,3.1882,3.1939,3.1902,3.1938,3.1999,3.1966,3.2028,3.2022,3.2026,3.2059,3.2017,3.205,3.2016,3.2046,3.2028,3.2083,3.2091,3.2083,3.2077,3.2085,3.2086,3.2092,3.2083,3.2066,3.2065,3.2064,3.2063,0,3.2031,3.2009,3.207,3.2062,3.2061,3.2106,3.2099,3.2132,3.2119,3.2162,3.2171,3.2151,3.2183,3.2161,3.2194,3.2181,3.2253,3.2238,3.225,3.2245,3.23,3.2293,3.2488,3.251,3.2336,3.2338,3.2339,0,3.2123,3.2165,3.216,3.2179,3.2181,3.2213,3.2228,3.2197,3.2215,3.2225,3.2256,3.2285,3.2305,3.2359,3.2348,3.2372,3.2355,3.2421,3.2358,3.2364,3.2352,3.2348,3.2351,3.2433,3.2435,3.2437,3.2438,0,3.2286,3.2273,3.2296,3.2316,3.2336,3.235,3.2361,3.2379,3.2347,3.237,3.2401,3.2417,3.2449,3.2477,3.2496,3.2497,3.2462,3.2459,3.2472,3.2479,3.2483,3.2478,3.2281,3.2454,3.2452,3.2451,3.245,3.245,3.2407,3.244,3.2441,3.2468,3.2473,3.2483,3.2512,3.2502,3.2527,3.2549,3.253,3.2567,3.2571,3.2593,3.2597,3.2625,3.2598,3.2619,3.2623,3.2628,3.2634,3.2481,3.263,3.2629,3.2629,3.2628,3.2628,0,3.2565,3.2562,3.2588,3.2603,3.2624,3.2588,3.2598,3.2618,3.265,3.2657,3.2677,3.2711,3.2737,3.2727,3.275,3.2774,3.2759,3.2781,3.2778,3.2777,3.2659,3.2643,3.2793,3.2793,3.2793,3.2793,3.2793,3.2793,3.265,3.2702,3.2688,3.2742,3.2739,3.2774,3.2782,3.2791,3.2795,3.2835,3.2855,3.2848,3.2847,3.2869,3.2891,3.2887,3.2896,3.2924,3.2914,3.2803,3.2786,3.2771,3.2756,3.2927,3.2927,3.303,3.3031,3.3032]},{"header":{"parameterUnit":"m.s-1","parameterCategory":1,"la1":30.2991,"la2":30.254,"lo1":-89.0895,"lo2":-89.0444,"dy":0.0017,"dx":0.0017,"nx":28,"ny":28,"refTime":"2025-07-12T21:00:00:Z","depth":0,"parameterNumber":3,"parameterNumberName":"V-component_of_WINDS"},"data":[0,0,0,0,0,0,0,0,0,0,0,0,0,0,0,0,0,0,0,0,0,0,0,0,0,0,0,0,0,0,0,0,0,0,0,0,0,0,0,0,0,0,0,0,0,0,0,0,0,0,0,0,0,0,0,0,0,0,2.9433,2.9434,0,2.9531,2.9532,2.9533,2.9518,2.9516,2.9514,2.9513,2.9609,2.9612,2.9617,0,0,0,0,0,0,0,0,0,0,0,0,0,2.9229,2.9232,2.9433,2.9434,2.9436,2.953,2.9532,2.9533,2.9518,2.9516,2.9514,2.9512,2.9607,2.9612,2.9617,0,0,0,0,0,0,0,0,0,0,0,0,0,2.9321,2.9234,2.9433,2.944,2.9441,2.953,2.9532,2.9533,2.9518,2.9516,2.9514,2.9511,2.9606,2.9612,2.9618,2.9705,0,0,2.9636,2.9639,0,0,0,0,0,0,0,0,2.9315,2.9328,2.9437,2.9439,2.9441,2.951,2.9495,2.9591,2.9519,2.9489,2.9513,2.951,2.9577,2.9586,2.9609,2.9709,2.9713,2.9637,2.9641,2.9643,2.9645,0,0,0,0,0,0,0,2.9309,2.9324,2.9471,2.9439,2.9441,2.9436,2.9446,2.9513,2.9546,2.9491,2.9491,2.9503,2.9578,2.9603,2.9611,2.9715,2.9637,2.9642,2.9646,2.9648,2.9888,2.9891,0,0,0,0,0,0,2.9302,2.9319,2.9468,2.9474,2.9371,2.9442,2.9453,2.949,2.9545,2.9551,2.9505,2.9502,2.9594,2.9604,2.9615,2.9719,2.9643,2.9649,2.9652,2.9885,2.9889,2.9892,0,0,0,0,0,0,2.9297,2.9315,2.9464,2.9396,2.9415,2.9448,2.9489,2.9493,2.9519,2.9555,2.956,2.9525,2.9593,2.9606,2.9682,2.9722,2.9652,2.9657,2.9882,2.9886,2.989,2.9928,0,0,0,0,0,0,2.9291,2.9314,2.9349,2.9397,2.9419,2.9532,2.9492,2.9497,2.953,2.9527,2.9575,2.9581,2.9592,2.9673,2.9688,2.9729,2.9662,2.9879,2.9884,2.9889,2.9924,2.9933,2.9941,0,0,0,0,0,2.9284,2.9355,2.935,2.9369,2.9463,2.9535,2.9547,2.9559,2.9533,2.9567,2.959,2.9579,2.9715,2.9681,2.9698,2.9741,2.9876,2.9883,2.9889,2.992,2.9931,2.9941,0,0,0,0,0,0,2.9309,2.9362,2.9357,2.9446,2.9486,2.9532,2.9576,2.9571,2.9618,2.9613,2.9624,2.9635,2.9712,2.9734,2.9695,2.9827,2.9792,2.9802,2.981,2.9821,2.983,2.9822,2.9667,0,0,0,0,0,2.9325,2.938,2.9422,2.9497,2.9517,2.9543,2.9575,2.958,2.9621,2.9638,2.9666,2.9706,2.9757,2.979,2.9839,2.9927,2.9936,2.9964,2.9973,2.998,2.9988,3.0033,3.0046,2.9912,2.9912,2.9911,0,0,2.9358,2.9394,2.9428,2.9503,2.9534,2.9589,2.9557,2.9617,2.9657,2.9647,2.972,2.9742,2.9786,2.9868,2.9905,2.9889,3.0027,2.9988,2.9993,2.9998,3.0041,3.0054,3.0065,2.9916,2.9915,2.9914,0,0,2.9447,2.948,2.9545,2.9577,2.9626,2.9642,2.9658,2.9704,2.9719,2.9793,2.9785,2.9832,2.9921,2.9952,2.9979,3.0078,3.0069,3.0093,3.0139,3.0183,3.0194,3.0203,3.0236,3.0248,3.0101,3.0101,3.0101,0,2.9482,2.9566,2.9578,2.9639,2.9671,2.9665,2.9729,2.9759,2.982,2.9842,2.9823,2.9932,2.9962,3.0049,3.0073,3.0096,3.0112,3.0088,3.0191,3.0201,3.021,3.0242,3.0254,3.0104,3.0104,3.0103,3.0103,0,2.9605,2.9663,2.9709,2.977,2.9807,2.9869,2.9889,2.9925,2.9927,2.9944,3.0019,3.0054,3.0109,3.013,3.0133,3.0218,3.0205,3.0189,3.0154,3.0225,3.0255,3.0267,3.0108,3.0107,3.0106,3.0105,0,0,2.9713,2.9779,2.9795,2.9821,2.9874,2.9918,2.9978,3.0033,3.0063,3.0105,3.0154,3.0229,3.0213,3.0244,3.025,3.0289,3.0362,3.0267,3.0268,3.0282,3.0455,3.0466,3.048,3.0356,3.0359,3.0361,3.0451,0,2.9805,2.9914,2.9926,3.0022,3.0074,3.0068,3.012,3.0157,3.0174,3.022,3.0239,3.0291,3.0267,3.0285,3.0324,3.0345,3.0396,3.0339,3.04,3.0402,3.0388,3.0496,3.0509,3.0592,3.0462,3.0465,3.0466,0,2.9928,2.9974,3.0075,3.0118,3.0141,3.0188,3.0238,3.0282,3.0322,3.0332,3.0366,3.0366,3.0426,3.0389,3.0471,3.0431,3.0457,3.0471,3.0474,3.048,3.0438,3.0503,3.0619,3.0631,3.0485,3.0483,3.0482,0,2.9994,3.0081,3.0152,3.0175,3.0228,3.0261,3.0284,3.0322,3.0353,3.0397,3.0417,3.0466,3.0493,3.053,3.0542,3.0515,3.0623,3.0587,3.0631,3.063,3.0653,3.0651,3.0774,3.0672,3.0672,3.0671,3.0671,0,3.0095,3.0156,3.0183,3.0226,3.0295,3.0307,3.0373,3.0395,3.0428,3.0474,3.0472,3.0515,3.0529,3.0574,3.0584,3.0648,3.0661,3.0669,3.067,3.0668,3.0667,3.0685,3.0679,3.0675,3.0674,3.0673,3.0673,0,3.018,3.02,3.0277,3.0321,3.0333,3.0381,3.0417,3.0458,3.0475,3.0533,3.0547,3.0573,3.0625,3.0642,3.0705,3.0711,3.0786,3.0783,3.0773,3.0773,3.0814,3.081,3.0951,3.097,3.0857,3.0858,3.0859,0,3.0242,3.029,3.0338,3.0369,3.0394,3.0445,3.0477,3.049,3.0523,3.0571,3.0606,3.0658,3.0701,3.0784,3.0807,3.0855,3.0852,3.0898,3.0859,3.0855,3.0851,3.0847,3.0851,3.0905,3.0907,3.0907,3.0908,0,3.0351,3.0358,3.0405,3.0456,3.0495,3.0535,3.0573,3.0598,3.0617,3.0654,3.0708,3.0741,3.0805,3.0856,3.0904,3.0925,3.0919,3.0921,3.0933,3.0931,3.0922,3.0925,3.0791,3.0917,3.0916,3.0916,3.0915,3.0915,3.0425,3.0466,3.0507,3.0559,3.0589,3.0625,3.0665,3.0687,3.0732,3.0786,3.0791,3.0849,3.0885,3.0949,3.0973,3.1017,3.1003,3.1022,3.1026,3.103,3.1032,3.0916,3.1026,3.1026,3.1026,3.1025,3.1025,0,3.0532,3.0557,3.0605,3.0659,3.07,3.0692,3.0733,3.0767,3.0818,3.0854,3.0896,3.0956,3.1005,3.1032,3.108,3.111,3.1108,3.1122,3.1119,3.1124,3.1043,3.1027,3.1122,3.1122,3.1122,3.1122,3.1122,3.1122,3.0592,3.0661,3.0672,3.0755,3.0779,3.0837,3.0861,3.0893,3.0921,3.0989,3.103,3.1048,3.1079,3.1129,3.1173,3.1179,3.1196,3.1211,3.1216,3.114,3.113,3.112,3.1105,3.1215,3.1216,3.1293,3.1294,3.1294]}]]